Regional Weather Roundup
Issued by NWS Charleston, WV

Home | Current Version | Previous Version | Text Only | Print | Product List | Glossary Off
Versions: 1 2 3 4 5 6 7 8 9 10 11 12 13 14 15 16 17 18 19 20 21 22 23 24 25 26 27

000
ASUS41 KRLX 272010
RWRRLX
West Virginia Regional Weather Roundup
National Weather Service Charleston WV
400 PM EDT FRI MAY 27 2016

Note: "fair" indicates few or no clouds below 12,000 feet with no
significant weather and/or obstructions to visibility.

WVZ003-272100-
Northern Panhandle of West Virginia

CITY           SKY/WX    TMP DP  RH WIND       PRES   REMARKS
WHEELING         N/A     86  63  45 SW12G17   30.05F
$$

WVZ009-272100-
Northwest West Virginia

CITY           SKY/WX    TMP DP  RH WIND       PRES   REMARKS
PARKERSBURG      N/A     86  64  47 VRB5      30.07F
$$

WVZ006-272100-
Western West Virginia

CITY           SKY/WX    TMP DP  RH WIND       PRES   REMARKS
HUNTINGTON       N/A     87  67  51 S7        30.03F
$$

WVZ015-272100-
West Central West Virginia

CITY           SKY/WX    TMP DP  RH WIND       PRES   REMARKS
CHARLESTON       N/A     86  62  44 W5        30.04F
$$

WVZ022-031-272100-
North Central West Virginia

CITY           SKY/WX    TMP DP  RH WIND       PRES   REMARKS
CLARKSBURG     PTSUNNY   82  64  54 SW8       30.08F
MORGANTOWN     PTSUNNY   87  59  38 W6        30.08F
$$

WVZ025-035-042-045-272100-
Southern West Virginia

CITY           SKY/WX    TMP DP  RH WIND       PRES   REMARKS
BECKLEY          N/A     81  57  43 S8        30.13F
LOGAN            N/A     84  63  48 CALM      30.07F
BLUEFIELD        N/A     75  57  53 CALM      30.17F
LEWISBURG        N/A     82  57  41 S6        30.12F
$$

WVZ047-272100-
Northern Mountains of West Virginia

CITY           SKY/WX    TMP DP  RH WIND       PRES   REMARKS
ELKINS           N/A     83  62  49 NW12      30.11S
$$

WVZ052-272100-
Eastern Panhandle of West Virginia

CITY           SKY/WX    TMP DP  RH WIND       PRES   REMARKS
MARTINSBURG      N/A     88  64  44 VRB3      30.03F
PETERSBURG     TSTM      74  71  89 SE7       30.10S
$$




USA.gov is the U.S. government's official web portal to all federal, state and local government web resources and services.